Regional Weather Roundup
Issued by NWS Upton, NY

Current Version | Previous Version | Graphics & Text | Print | Product List | Glossary Off
Versions: 1 2 3 4 5 6 7 8 9 10 11 12 13 14 15 16 17 18 19 20 21 22 23 24 25 26 27 28 29 30 31 32 33 34 35 36 37 38 39 40 41 42 43 44 45 46 47 48 49 50
000 ASUS41 KOKX 170108 RWROKX REGIONAL WEATHER ROUNDUP NATIONAL WEATHER SERVICE NEW YORK NY 800 PM EST MON JAN 16 2017 NOTE: "FAIR" INDICATES FEW OR NO CLOUDS BELOW 12,000 FEET WITH NO SIGNIFICANT WEATHER AND/OR OBSTRUCTIONS TO VISIBILITY. NYZ071-072-176-178-NJZ106-104-170200- NEW YORK CITY METRO AREA CITY SKY/WX TMP DP RH WIND PRES REMARKS Central Park MOCLDY 41 24 51 VRB3 30.35F Wall St Helipt PTCLDY 40 27 59 W7 30.35F Bronx Bot Gard NOT AVBL LaGuardia APRT MOCLDY 42 25 50 SW9 30.33F Kennedy INTL CLOUDY 40 27 59 SW9 30.36S WCI 34 Breezy Point N/A 39 N/A N/A SW7 N/A WCI 34 Newark/Liberty CLOUDY 41 24 51 SW7 30.34S Teterboro CLOUDY 40 25 55 SW8 30.33F WCI 34 $$ NYZ177-179-078>081-170200- LONG ISLAND NEW YORK CITY SKY/WX TMP DP RH WIND PRES REMARKS Jones Beach N/A 39 N/A N/A SW7 N/A WCI 34 Matinecock PT N/A 37 N/A N/A SW10 N/A WCI 30 Farmingdale CLOUDY 37 30 75 SW6 30.35S WCI 32 MacArthur/ISP MOCLDY 34 30 85 SW6 30.34S WCI 29 Shirley CLOUDY 34 31 88 SW5 30.35S WCI 30 Westhampton CLOUDY 29 24 82 CALM 30.35F Southampton NOT AVBL Bridgehampton NOT AVBL East Hampton N/A 33 26 77 W5 30.33S WCI 28 Montauk N/A 37 28 70 SW7 30.33F WCI 32 $$ NYZ052-065-067-170200- HUDSON VALLEY CITY SKY/WX TMP DP RH WIND PRES REMARKS White Plains CLOUDY 37 22 54 W3 30.31S Newburgh MOCLDY 36 25 64 W9 30.31S WCI 29 Montgomery CLOUDY 35 24 64 SW5 30.29S WCI 31 Poughkeepsie PTCLDY 35 21 56 SW6 30.31R WCI 30 Albany CLOUDY 29 19 66 CALM 30.29S $$ NJZ001-105-106-008-010-013-015-019>022-104-170200- NEW JERSEY CITY SKY/WX TMP DP RH WIND PRES REMARKS Newark/Liberty CLOUDY 41 24 51 SW7 30.34S Teterboro CLOUDY 40 25 55 SW8 30.33F WCI 34 Caldwell CLOUDY 37 24 59 W3 30.34S Somerville CLOUDY 37 25 61 CALM 30.33R Linden CLOUDY 40 23 49 W3 30.35S Sussex CLOUDY 32 26 78 SW3 30.31F Andover N/A 33 26 75 CALM 30.31F Trenton CLOUDY 39 25 57 SW3 30.34S Millville CLOUDY 37 26 64 CALM 30.37S Atlantic City CLOUDY 39 27 62 SW5 30.37S Wrightstown CLOUDY 39 22 52 SW7 30.33S WCI 34 Toms River CLOUDY 37 26 64 SW3 30.37S Belmar CLOUDY 36 26 67 CALM 30.36S $$ PAZ047>061-062-071-170200- EASTERN PENNSYLVANIA CITY SKY/WX TMP DP RH WIND PRES REMARKS Philadelphia CLOUDY 38 26 62 SW6 30.37S WCI 33 Allentown CLOUDY 37 25 61 W6 30.34R WCI 32 Scranton CLOUDY 36 30 79 W6 30.29S WCI 31 $$ CTZ002-004>006-009-010-012-RIZ004-006-007-MAZ004-011-015-170200- SOUTHERN NEW ENGLAND IN CT CITY SKY/WX TMP DP RH WIND PRES REMARKS Bradley INTL CLOUDY 32 22 66 S9 30.30S WCI 24 Hartford PTCLDY 32 23 69 S5 30.31F WCI 27 Danbury CLOUDY 31 22 69 CALM 30.31S Wtrbury/Oxford MOCLDY 34 19 55 SW5 30.29F WCI 30 Bridgeport PTCLDY 39 30 70 SW9 30.33S WCI 33 Meriden MOCLDY 31 23 72 CALM 30.31F New Haven MOCLDY 37 30 75 SW8 30.33S WCI 31 Chester N/A 34 27 75 SW7 30.30F WCI 28 Groton PTCLDY 37 29 72 W9 30.31F WCI 30 Wilimantic CLOUDY 34 22 61 S3 30.31F IN RI CITY SKY/WX TMP DP RH WIND PRES REMARKS Providence MOCLDY 32 20 61 SW7 30.30F WCI 26 Block Island NOT AVBL Westerly CLOUDY 37 25 61 SW7 30.32F WCI 32 IN MA CITY SKY/WX TMP DP RH WIND PRES REMARKS Boston CLOUDY 37 18 46 SW14G22 30.26S WCI 28 Worcester CLOUDY 32 16 51 W15 30.22F WCI 22 Westfield PTCLDY 29 21 72 CALM 30.28S Provincetown CLOUDY 36 24 62 SW16 30.27F WCI 26 Nantucket CLEAR 38 31 76 W12 30.31S WCI 30 $$ ANZ330-335-338-340-345-350-353-355-170200- COASTAL MARINE OBSERVATIONS STATION/POSITION TIME SKY/WX TEMP WIND PRES VSBY WAVE AIR SEA DIR/SP/G HT/PER (UTC) (F) (DEG/KT/KT) (MB) (MI) (FT/S) NY HARB ENTRANCE 2350 41 44 220/ 14/ 16 1027.6 2/ 3 20 S FIRE ISLAND 2350 41 45 230/ 12/ 14 1027.8 2/ 9 GREAT SOUTH BAY NOT AVBL 23 SSW MONTAUK P 2350 41 48 240/ 16/ 17 1027.6 2/ 3 15 E BARNEGAT LI 0030 46 N/A 2/10 HUDSON CANYON 2350 45 53 1028.3 2/ 8 KINGS POINT 0036 40 38 1027.1 EXECUTION ROCKS 0045 39 200/ 8/ 10 N/A CENTRAL LI SOUND 0015 38 230/ 14/ 16 N/A 1/ 2 EASTERN LI SOUND NOT AVBL ROBBINS REEF 0036 40 240/ 6/ 7 1027.8 $$ >>>>>>>>>>>>>>>>>>>>>>>>>>>> KEY <<<<<<<<<<<<<<<<<<<<<<<<<<< > < > SKY/WX - Sky Condition/Present Weather < > TMP - Temperature in Fahrenheit < > DP - Dew Point in Fahrenheit < > RH - Relative Humidity in Percent < > WIND - Direction (from) and Speed in MPH < > PRES - Mean Sea Level Pressure (inches of Hg) < > WCI - Wind Chill Index < > VSB - VISIBILITY IN MILES < > HX - HEAT INDEX < > TC - TEMPERATURE IN CELSIUS < > VRB - VARIABLE WIND DIRECTION < > < >>>>>>>>>>>>>>>>>>>>>>>>>>>> KEY <<<<<<<<<<<<<<<<<<<<<<<<<<<

USA.gov is the U.S. government's official web portal to all federal, state and local government web resources and services.